Weather History for KMCI - May, 2014

Change the Weather History Date:

Saturday, May 17, 2014

  Actual Average Record
Temperature  
Mean Temperature 51 °F 65 °F  
Max Temperature 64 °F 75 °F 90 °F (1966)
Min Temperature 37 °F 55 °F 37 °F (2014)
Degree Days  
Heating Degree Days 14 3  
Month to date heating degree days 106 76  
Since 1 July heating degree days 5781 5096  
Cooling Degree Days 0 3  
Month to date cooling degree days 47 31  
Year to date cooling degree days 56 59  
Moisture  
Dew Point 36 °F    
Average Humidity 62    
Maximum Humidity 92    
Minimum Humidity 32    
Precipitation  
Precipitation 0.00 in 0.18 in 3.13 in (1974)
Month to date precipitation 0.78 2.86  
Year to date precipitation 8.07 11.46  
Snow  
Snow 0.00 in 0.00 in 0.00 in ()
Month to date snowfall 0.0 0.0  
Since 1 July snowfall 26.1 18.8  
Snow Depth 0.00 in    
Sea Level Pressure  
Sea Level Pressure 30.16 in    
Wind  
Wind Speed 4 mph (West)    
Max Wind Speed 10 mph    
Max Gust Speed 13 mph    
Visibility 9 miles    
Events Fog    
T = Trace of Precipitation, MM = Missing Value Source: NWS Daily Summary

Daily Weather History Graph

Daily Weather History Graph

Search for Another Location

Airport or City:

Trip Planner

Search our weather history database for the weather conditions in past years. The results will help you decide how hot, cold, wet, or windy it might be!

Date:

Astronomy

May. 17, 2014 Rise Set
Actual Time 6:03 AM CDT 8:27 PM CDT
Civil Twilight 5:33 AM CDT 8:58 PM CDT
Nautical Twilight 4:55 AM CDT 9:35 PM CDT
Astronomical Twilight 4:14 AM CDT 10:17 PM CDT
Moon 11:29 PM CDT (5/17) 8:47 AM CDT (5/17)
Length of Visible Light 15h 24m
Length of Day
14h 23m
Waning Gibbous, 89% of the Moon is Illuminated
May 17
Waning Gibbous
May 21
Last Quarter
May 28
New
Jun 5
First Quarter
Jun 12
Full

Hourly Weather History & Observations

Time (CDT) Temp. Windchill Dew Point Humidity Pressure Visibility Wind Dir Wind Speed Gust Speed Precip Events Conditions
12:53 AM 43.0 °F 39.5 °F 36.0 °F 76% 30.16 in 10.0 mi WSW 5.8 mph - N/A   Clear
1:53 AM 42.1 °F 38.4 °F 37.0 °F 82% 30.16 in 10.0 mi West 5.8 mph - N/A   Clear
2:53 AM 41.0 °F 37.1 °F 37.0 °F 86% 30.16 in 10.0 mi West 5.8 mph - N/A   Clear
3:53 AM 39.9 °F 35.8 °F 37.0 °F 89% 30.17 in 10.0 mi WNW 5.8 mph - N/A   Clear
4:53 AM 39.9 °F 35.8 °F 37.9 °F 93% 30.17 in 8.0 mi NW 5.8 mph - N/A   Clear
5:49 AM 39.2 °F 35.9 °F 37.4 °F 93% 30.16 in 1.2 mi NW 4.6 mph - N/A   Clear
5:53 AM 39.9 °F 37.8 °F 37.9 °F 93% 30.17 in 5.0 mi NW 3.5 mph - N/A Fog Patches of Fog
6:53 AM 41.0 °F 39.0 °F 37.9 °F 89% 30.17 in 5.0 mi NW 3.5 mph - N/A Fog Patches of Fog
7:53 AM 46.0 °F 43.9 °F 41.0 °F 83% 30.18 in 9.0 mi NW 4.6 mph - N/A   Scattered Clouds
8:53 AM 50.0 °F - 41.0 °F 71% 30.19 in 10.0 mi NW 5.8 mph - N/A   Scattered Clouds
9:53 AM 54.0 °F - 39.9 °F 59% 30.19 in 10.0 mi NW 3.5 mph - N/A   Scattered Clouds
10:53 AM 57.0 °F - 34.0 °F 42% 30.19 in 10.0 mi Variable 3.5 mph - N/A   Scattered Clouds
11:53 AM 60.1 °F - 34.0 °F 38% 30.19 in 10.0 mi Variable 5.8 mph - N/A   Mostly Cloudy
12:53 PM 60.1 °F - 30.9 °F 33% 30.19 in 10.0 mi Calm Calm - N/A   Mostly Cloudy
1:53 PM 61.0 °F - 32.0 °F 34% 30.17 in 10.0 mi Calm Calm - N/A   Mostly Cloudy
2:53 PM 61.0 °F - 32.0 °F 34% 30.15 in 10.0 mi Calm Calm - N/A   Mostly Cloudy
3:53 PM 63.0 °F - 32.0 °F 31% 30.14 in 10.0 mi Variable 3.5 mph - N/A   Mostly Cloudy
4:53 PM 63.0 °F - 32.0 °F 31% 30.13 in 10.0 mi Calm Calm - N/A   Mostly Cloudy
5:53 PM 62.1 °F - 33.1 °F 34% 30.14 in 10.0 mi Calm Calm - N/A   Mostly Cloudy
6:53 PM 61.0 °F - 36.0 °F 39% 30.13 in 10.0 mi WSW 3.5 mph - N/A   Mostly Cloudy
7:53 PM 59.0 °F - 37.0 °F 44% 30.14 in 10.0 mi SW 3.5 mph - N/A   Mostly Cloudy
8:53 PM 57.2 °F - 33.8 °F 41% 30.15 in 10.0 mi WSW 4.6 mph - N/A   Partly Cloudy
9:53 PM 54.0 °F - 34.0 °F 47% 30.16 in 10.0 mi Calm Calm - N/A   Clear
10:53 PM 50.0 °F - 36.0 °F 59% 30.18 in 10.0 mi SE 5.8 mph - N/A   Clear
11:53 PM 48.0 °F - 35.1 °F 61% 30.18 in 10.0 mi SSE 6.9 mph - N/A   Clear